TimeHST,TemperatureF,Dew PointF,Humidity,Sea Level PressureIn,VisibilityMPH,Wind Direction,Wind SpeedMPH,Gust SpeedMPH,PrecipitationIn,Events,Conditions,WindDirDegrees,DateUTC
12:53 AM,69.1,64.9,87,30.06,10.0,WSW,6.9,-,0.00,,Overcast,250,2012-09-04 10:53:00
1:53 AM,69.1,63.0,81,30.05,10.0,SW,4.6,-,0.00,,Partly Cloudy,230,2012-09-04 11:53:00
2:53 AM,69.1,63.0,81,30.04,10.0,SW,8.1,-,0.00,,Overcast,230,2012-09-04 12:53:00
3:41 AM,68.0,64.4,88,30.05,10.0,South,4.6,-,0.01,Rain,Light Rain,190,2012-09-04 13:41:00
3:53 AM,68.0,64.9,90,30.05,10.0,SSE,5.8,-,0.01,,Overcast,160,2012-09-04 13:53:00
4:10 AM,68.0,64.4,88,30.05,10.0,WSW,8.1,-,0.00,Rain,Light Rain,250,2012-09-04 14:10:00
4:53 AM,68.0,64.9,90,30.06,10.0,SW,3.5,-,0.00,,Overcast,230,2012-09-04 14:53:00
5:53 AM,68.0,64.0,87,30.07,10.0,WSW,4.6,-,N/A,,Mostly Cloudy,240,2012-09-04 15:53:00
6:53 AM,69.1,64.9,87,30.09,10.0,SW,4.6,-,N/A,,Mostly Cloudy,230,2012-09-04 16:53:00
7:53 AM,75.0,64.9,71,30.10,10.0,West,4.6,-,N/A,,Mostly Cloudy,270,2012-09-04 17:53:00
8:53 AM,77.0,64.9,66,30.11,10.0,Calm,Calm,-,N/A,,Mostly Cloudy,0,2012-09-04 18:53:00
9:53 AM,78.1,66.0,66,30.12,10.0,Calm,Calm,-,N/A,,Overcast,0,2012-09-04 19:53:00
10:53 AM,75.0,69.1,82,30.13,10.0,NNW,6.9,-,0.01,Rain,Light Rain,330,2012-09-04 20:53:00
11:53 AM,77.0,64.0,64,30.10,10.0,SSW,6.9,-,0.00,,Mostly Cloudy,210,2012-09-04 21:53:00
12:53 PM,79.0,66.0,64,30.09,10.0,North,4.6,-,N/A,,Mostly Cloudy,360,2012-09-04 22:53:00
1:53 PM,81.0,64.9,58,30.06,10.0,ESE,8.1,-,N/A,,Scattered Clouds,120,2012-09-04 23:53:00
2:53 PM,82.0,66.0,58,30.06,10.0,ESE,8.1,-,N/A,,Partly Cloudy,110,2012-09-05 00:53:00
3:53 PM,81.0,63.0,54,30.05,10.0,East,6.9,-,N/A,,Scattered Clouds,100,2012-09-05 01:53:00
4:53 PM,79.0,64.0,60,30.05,10.0,East,6.9,-,N/A,,Clear,80,2012-09-05 02:53:00
5:53 PM,77.0,66.0,69,30.06,10.0,East,5.8,-,N/A,,Clear,80,2012-09-05 03:53:00
6:53 PM,73.0,66.9,81,30.08,10.0,Calm,Calm,-,N/A,,Clear,0,2012-09-05 04:53:00
7:53 PM,72.0,66.9,84,30.09,10.0,WSW,3.5,-,N/A,,Clear,240,2012-09-05 05:53:00
8:53 PM,70.0,64.9,84,30.11,10.0,WSW,6.9,-,N/A,,Clear,240,2012-09-05 06:53:00
9:53 PM,69.1,62.1,78,30.12,10.0,SW,4.6,-,N/A,,Clear,230,2012-09-05 07:53:00
10:53 PM,70.0,60.1,71,30.12,10.0,SW,5.8,-,N/A,,Overcast,230,2012-09-05 08:53:00
11:53 PM,70.0,59.0,68,30.10,10.0,SW,5.8,-,N/A,,Mostly Cloudy,230,2012-09-05 09:53:00